PRIVATE WETTERSTATION BILLIGHEIM-ALLFELD                       ZURCK
Wetterdaten: Donnerstag, 02.11.2017
Datum Zeit Temp. A. Temp. A. min Temp. A. max Feuchte A. Luftdruck Regen Wind Richtung Richtung Sonnenschein ET Solar Taupunkt Windchill Windben Empfang
02.11.2017 00:00 4,0 C 4,0 C 4,0 C 90 % 1018,8 hPa 0,0 l/m 0,0 km/h (0 Bft) N 0 0 min 0,000 mm 0 W/m 2,5 C 4,0 C 0,0 km/h (0 Bft) 98 %
02.11.2017 00:10 4,0 C 4,0 C 4,0 C 90 % 1018,8 hPa 0,0 l/m 0,0 km/h (0 Bft) N 0 0 min 0,000 mm 0 W/m 2,5 C 4,0 C 0,0 km/h (0 Bft) 98 %
02.11.2017 00:20 3,9 C 3,9 C 4,0 C 90 % 1018,7 hPa 0,0 l/m 0,0 km/h (0 Bft) N 0 0 min 0,000 mm 0 W/m 2,4 C 3,9 C 0,0 km/h (0 Bft) 96 %
02.11.2017 00:30 3,9 C 3,9 C 3,9 C 90 % 1018,7 hPa 0,0 l/m 0,0 km/h (0 Bft) N 0 0 min 0,000 mm 0 W/m 2,4 C 3,9 C 0,0 km/h (0 Bft) 98 %
02.11.2017 00:40 3,9 C 3,9 C 3,9 C 90 % 1018,7 hPa 0,0 l/m 0,0 km/h (0 Bft) N 0 0 min 0,000 mm 0 W/m 2,4 C 3,9 C 0,0 km/h (0 Bft) 97 %
02.11.2017 00:50 3,9 C 3,9 C 3,9 C 90 % 1018,6 hPa 0,0 l/m 0,0 km/h (0 Bft) N 0 0 min 0,000 mm 0 W/m 2,4 C 3,9 C 0,0 km/h (0 Bft) 97 %
02.11.2017 01:00 3,8 C 3,8 C 3,9 C 90 % 1018,6 hPa 0,0 l/m 0,0 km/h (0 Bft) N 0 0 min 0,000 mm 0 W/m 2,3 C 3,8 C 0,0 km/h (0 Bft) 98 %
02.11.2017 01:10 3,8 C 3,8 C 3,9 C 90 % 1018,5 hPa 0,0 l/m 0,0 km/h (0 Bft) N 0 0 min 0,000 mm 0 W/m 2,3 C 3,8 C 0,0 km/h (0 Bft) 98 %
02.11.2017 01:20 3,9 C 3,8 C 3,9 C 90 % 1018,5 hPa 0,0 l/m 0,0 km/h (0 Bft) N 0 0 min 0,000 mm 0 W/m 2,4 C 3,9 C 0,0 km/h (0 Bft) 97 %
02.11.2017 01:30 3,9 C 3,9 C 3,9 C 90 % 1018,3 hPa 0,0 l/m 0,0 km/h (0 Bft) N 0 0 min 0,000 mm 0 W/m 2,4 C 3,9 C 0,0 km/h (0 Bft) 98 %
02.11.2017 01:40 3,9 C 3,9 C 3,9 C 90 % 1018,0 hPa 0,0 l/m 0,0 km/h (0 Bft) N 0 0 min 0,000 mm 0 W/m 2,4 C 3,9 C 0,0 km/h (0 Bft) 89 %
02.11.2017 01:50 4,0 C 3,9 C 4,0 C 90 % 1017,9 hPa 0,0 l/m 0,0 km/h (0 Bft) N 0 0 min 0,000 mm 0 W/m 2,5 C 4,0 C 0,0 km/h (0 Bft) 98 %
02.11.2017 02:00 4,0 C 4,0 C 4,0 C 90 % 1017,7 hPa 0,0 l/m 0,0 km/h (0 Bft) N 0 0 min 0,000 mm 0 W/m 2,5 C 4,0 C 0,0 km/h (0 Bft) 97 %
02.11.2017 02:10 4,0 C 4,0 C 4,1 C 90 % 1017,7 hPa 0,0 l/m 0,0 km/h (0 Bft) N 0 0 min 0,000 mm 0 W/m 2,5 C 4,0 C 0,0 km/h (0 Bft) 98 %
02.11.2017 02:20 3,9 C 3,9 C 4,0 C 90 % 1017,6 hPa 0,0 l/m 0,0 km/h (0 Bft) N 0 0 min 0,000 mm 0 W/m 2,4 C 3,9 C 0,0 km/h (0 Bft) 98 %
02.11.2017 02:30 3,9 C 3,9 C 3,9 C 90 % 1017,5 hPa 0,0 l/m 0,0 km/h (0 Bft) N 0 0 min 0,000 mm 0 W/m 2,4 C 3,9 C 0,0 km/h (0 Bft) 98 %
02.11.2017 02:40 4,0 C 3,9 C 4,0 C 90 % 1017,4 hPa 0,0 l/m 0,0 km/h (0 Bft) N 0 0 min 0,000 mm 0 W/m 2,5 C 4,0 C 0,0 km/h (0 Bft) 98 %
02.11.2017 02:50 4,0 C 3,9 C 4,1 C 90 % 1017,3 hPa 0,0 l/m 0,0 km/h (0 Bft) N 0 0 min 0,000 mm 0 W/m 2,5 C 4,0 C 0,0 km/h (0 Bft) 97 %
02.11.2017 03:00 4,1 C 4,0 C 4,1 C 90 % 1017,2 hPa 0,0 l/m 0,0 km/h (0 Bft) N 0 0 min 0,000 mm 0 W/m 2,6 C 4,1 C 0,0 km/h (0 Bft) 98 %
02.11.2017 03:10 4,2 C 4,1 C 4,2 C 90 % 1016,9 hPa 0,0 l/m 0,0 km/h (0 Bft) N 0 0 min 0,000 mm 0 W/m 2,7 C 4,2 C 0,0 km/h (0 Bft) 97 %
02.11.2017 03:20 4,1 C 4,1 C 4,2 C 90 % 1016,8 hPa 0,0 l/m 0,0 km/h (0 Bft) N 0 0 min 0,000 mm 0 W/m 2,6 C 4,1 C 0,0 km/h (0 Bft) 98 %
02.11.2017 03:30 4,0 C 4,0 C 4,1 C 90 % 1016,8 hPa 0,0 l/m 0,0 km/h (0 Bft) S-SW 202 0 min 0,000 mm 0 W/m 2,5 C 4,0 C 1,6 km/h (1 Bft) 89 %
02.11.2017 03:40 3,9 C 3,9 C 4,0 C 90 % 1016,8 hPa 0,0 l/m 0,0 km/h (0 Bft) N 0 0 min 0,000 mm 0 W/m 2,4 C 3,9 C 0,0 km/h (0 Bft) 97 %
02.11.2017 03:50 3,8 C 3,8 C 3,9 C 90 % 1016,6 hPa 0,0 l/m 0,0 km/h (0 Bft) N 0 0 min 0,000 mm 0 W/m 2,3 C 3,8 C 0,0 km/h (0 Bft) 97 %
02.11.2017 04:00 3,8 C 3,8 C 3,8 C 90 % 1016,4 hPa 0,0 l/m 0,0 km/h (0 Bft) N 0 0 min 0,000 mm 0 W/m 2,3 C 3,8 C 0,0 km/h (0 Bft) 96 %
02.11.2017 04:10 3,9 C 3,8 C 3,9 C 90 % 1016,1 hPa 0,0 l/m 1,6 km/h (1 Bft) S 180 0 min 0,000 mm 0 W/m 2,4 C 3,9 C 6,4 km/h (2 Bft) 98 %
02.11.2017 04:20 4,1 C 3,9 C 4,1 C 90 % 1016,0 hPa 0,0 l/m 1,6 km/h (1 Bft) S-SO 157 0 min 0,000 mm 0 W/m 2,6 C 4,1 C 6,4 km/h (2 Bft) 97 %
02.11.2017 04:30 4,3 C 4,1 C 4,3 C 90 % 1016,0 hPa 0,0 l/m 1,6 km/h (1 Bft) S-SO 157 0 min 0,000 mm 0 W/m 2,8 C 4,3 C 4,8 km/h (1 Bft) 98 %
02.11.2017 04:40 4,1 C 4,1 C 4,2 C 90 % 1016,2 hPa 0,0 l/m 0,0 km/h (0 Bft) N 0 0 min 0,000 mm 0 W/m 2,6 C 4,1 C 0,0 km/h (0 Bft) 97 %
02.11.2017 04:50 3,9 C 3,9 C 4,1 C 90 % 1016,0 hPa 0,0 l/m 0,0 km/h (0 Bft) N 0 0 min 0,000 mm 0 W/m 2,4 C 3,9 C 0,0 km/h (0 Bft) 98 %
02.11.2017 05:00 3,8 C 3,8 C 3,9 C 90 % 1015,9 hPa 0,0 l/m 0,0 km/h (0 Bft) N 0 0 min 0,000 mm 0 W/m 2,3 C 3,8 C 0,0 km/h (0 Bft) 98 %
02.11.2017 05:10 3,9 C 3,8 C 3,9 C 90 % 1015,7 hPa 0,0 l/m 0,0 km/h (0 Bft) N 0 0 min 0,000 mm 0 W/m 2,4 C 3,9 C 0,0 km/h (0 Bft) 97 %
02.11.2017 05:20 3,9 C 3,9 C 3,9 C 90 % 1015,6 hPa 0,0 l/m 0,0 km/h (0 Bft) N 0 0 min 0,000 mm 0 W/m 2,4 C 3,9 C 0,0 km/h (0 Bft) 98 %
02.11.2017 05:30 4,0 C 3,9 C 4,0 C 90 % 1015,4 hPa 0,0 l/m 0,0 km/h (0 Bft) N 0 0 min 0,000 mm 0 W/m 2,5 C 4,0 C 0,0 km/h (0 Bft) 97 %
02.11.2017 05:40 4,1 C 4,0 C 4,1 C 90 % 1015,4 hPa 0,0 l/m 0,0 km/h (0 Bft) N 0 0 min 0,000 mm 0 W/m 2,6 C 4,1 C 0,0 km/h (0 Bft) 98 %
02.11.2017 05:50 3,9 C 3,9 C 4,1 C 90 % 1015,3 hPa 0,0 l/m 0,0 km/h (0 Bft) N 0 0 min 0,000 mm 0 W/m 2,4 C 3,9 C 0,0 km/h (0 Bft) 97 %
02.11.2017 06:00 4,2 C 3,9 C 4,2 C 90 % 1015,2 hPa 0,0 l/m 1,6 km/h (1 Bft) S-SO 157 0 min 0,000 mm 0 W/m 2,7 C 4,2 C 4,8 km/h (1 Bft) 98 %
02.11.2017 06:10 4,3 C 4,2 C 4,3 C 90 % 1015,2 hPa 0,0 l/m 0,0 km/h (0 Bft) S-SO 157 0 min 0,000 mm 0 W/m 2,8 C 4,3 C 3,2 km/h (1 Bft) 98 %
02.11.2017 06:20 4,1 C 4,1 C 4,3 C 91 % 1015,2 hPa 0,0 l/m 0,0 km/h (0 Bft) N 0 0 min 0,000 mm 0 W/m 2,8 C 4,1 C 0,0 km/h (0 Bft) 97 %
02.11.2017 06:30 3,8 C 3,8 C 4,1 C 90 % 1015,2 hPa 0,0 l/m 0,0 km/h (0 Bft) N 0 0 min 0,000 mm 0 W/m 2,3 C 3,8 C 0,0 km/h (0 Bft) 98 %
02.11.2017 06:40 3,7 C 3,7 C 3,8 C 90 % 1015,3 hPa 0,0 l/m 0,0 km/h (0 Bft) N 0 0 min 0,000 mm 0 W/m 2,2 C 3,7 C 0,0 km/h (0 Bft) 97 %
02.11.2017 06:50 3,8 C 3,7 C 3,8 C 90 % 1015,3 hPa 0,0 l/m 0,0 km/h (0 Bft) N 0 0 min 0,000 mm 0 W/m 2,3 C 3,8 C 0,0 km/h (0 Bft) 98 %
02.11.2017 07:00 4,1 C 3,8 C 4,1 C 90 % 1015,3 hPa 0,0 l/m 0,0 km/h (0 Bft) N 0 0 min 0,000 mm 0 W/m 2,6 C 4,1 C 0,0 km/h (0 Bft) 97 %
02.11.2017 07:10 4,5 C 4,1 C 4,5 C 90 % 1015,3 hPa 0,0 l/m 1,6 km/h (1 Bft) S-SO 157 0 min 0,000 mm 0 W/m 3,0 C 4,5 C 6,4 km/h (2 Bft) 98 %
02.11.2017 07:20 4,7 C 4,5 C 4,7 C 90 % 1015,3 hPa 0,0 l/m 3,2 km/h (1 Bft) S-SO 157 0 min 0,000 mm 0 W/m 3,2 C 4,7 C 6,4 km/h (2 Bft) 88 %
02.11.2017 07:30 4,9 C 4,8 C 4,9 C 90 % 1015,4 hPa 0,0 l/m 1,6 km/h (1 Bft) S-SO 157 0 min 0,000 mm 9 W/m 3,4 C 4,9 C 6,4 km/h (2 Bft) 97 %
02.11.2017 07:40 5,1 C 4,9 C 5,1 C 90 % 1015,6 hPa 0,0 l/m 1,6 km/h (1 Bft) SO 135 0 min 0,000 mm 21 W/m 3,6 C 5,1 C 6,4 km/h (2 Bft) 98 %
02.11.2017 07:50 5,1 C 5,1 C 5,1 C 90 % 1015,7 hPa 0,0 l/m 0,0 km/h (0 Bft) S-SO 157 0 min 0,000 mm 33 W/m 3,6 C 5,1 C 1,6 km/h (1 Bft) 97 %
02.11.2017 08:00 5,3 C 5,1 C 5,3 C 90 % 1015,8 hPa 0,0 l/m 1,6 km/h (1 Bft) SO 135 0 min 0,000 mm 39 W/m 3,8 C 5,3 C 6,4 km/h (2 Bft) 98 %
02.11.2017 08:10 5,7 C 5,3 C 5,7 C 90 % 1015,7 hPa 0,0 l/m 4,8 km/h (1 Bft) SO 135 0 min 0,000 mm 53 W/m 4,2 C 5,7 C 9,7 km/h (2 Bft) 97 %
02.11.2017 08:20 6,1 C 5,7 C 6,1 C 90 % 1015,7 hPa 0,0 l/m 6,4 km/h (2 Bft) SO 135 0 min 0,000 mm 107 W/m 4,6 C 6,1 C 11,3 km/h (2 Bft) 97 %
02.11.2017 08:30 6,4 C 6,1 C 6,4 C 90 % 1015,7 hPa 0,0 l/m 4,8 km/h (1 Bft) SO 135 0 min 0,000 mm 125 W/m 4,9 C 6,4 C 11,3 km/h (2 Bft) 98 %
02.11.2017 08:40 6,6 C 6,4 C 6,6 C 89 % 1015,7 hPa 0,0 l/m 4,8 km/h (1 Bft) SO 135 0 min 0,000 mm 116 W/m 4,9 C 6,6 C 8,0 km/h (2 Bft) 97 %
02.11.2017 08:50 6,6 C 6,5 C 6,6 C 89 % 1015,7 hPa 0,0 l/m 4,8 km/h (1 Bft) SO 135 0 min 0,000 mm 102 W/m 4,9 C 6,6 C 14,5 km/h (3 Bft) 98 %
02.11.2017 09:00 6,6 C 6,6 C 6,6 C 89 % 1015,7 hPa 0,0 l/m 4,8 km/h (1 Bft) SO 135 0 min 0,025 mm 76 W/m 4,9 C 6,6 C 9,7 km/h (2 Bft) 97 %
02.11.2017 09:10 6,5 C 6,5 C 6,6 C 89 % 1015,6 hPa 0,0 l/m 6,4 km/h (2 Bft) SO 135 0 min 0,000 mm 67 W/m 4,8 C 6,5 C 9,7 km/h (2 Bft) 98 %
02.11.2017 09:20 6,6 C 6,5 C 6,6 C 89 % 1015,8 hPa 0,0 l/m 4,8 km/h (1 Bft) SO 135 0 min 0,000 mm 69 W/m 4,9 C 6,6 C 9,7 km/h (2 Bft) 97 %
02.11.2017 09:30 6,6 C 6,6 C 6,6 C 89 % 1015,6 hPa 0,0 l/m 4,8 km/h (1 Bft) SO 135 0 min 0,000 mm 91 W/m 4,9 C 6,6 C 8,0 km/h (2 Bft) 98 %
02.11.2017 09:40 7,0 C 6,6 C 7,0 C 89 % 1015,6 hPa 0,0 l/m 4,8 km/h (1 Bft) SO 135 10 min 0,000 mm 265 W/m 5,3 C 7,0 C 8,0 km/h (2 Bft) 98 %
02.11.2017 09:50 7,3 C 7,0 C 7,3 C 88 % 1015,6 hPa 0,0 l/m 6,4 km/h (2 Bft) S-SO 157 10 min 0,000 mm 241 W/m 5,4 C 7,3 C 14,5 km/h (3 Bft) 97 %
02.11.2017 10:00 7,2 C 7,2 C 7,3 C 88 % 1015,6 hPa 0,0 l/m 6,4 km/h (2 Bft) S-SO 157 10 min 0,051 mm 246 W/m 5,3 C 7,2 C 9,7 km/h (2 Bft) 98 %
02.11.2017 10:10 7,7 C 7,2 C 7,7 C 88 % 1015,6 hPa 0,0 l/m 6,4 km/h (2 Bft) SO 135 10 min 0,000 mm 301 W/m 5,8 C 7,7 C 11,3 km/h (2 Bft) 97 %
02.11.2017 10:20 8,3 C 7,7 C 8,3 C 87 % 1015,6 hPa 0,0 l/m 4,8 km/h (1 Bft) S-SO 157 10 min 0,000 mm 294 W/m 6,3 C 8,3 C 11,3 km/h (2 Bft) 97 %
02.11.2017 10:30 8,9 C 8,3 C 8,9 C 87 % 1015,7 hPa 0,0 l/m 4,8 km/h (1 Bft) S-SO 157 10 min 0,000 mm 352 W/m 6,9 C 8,9 C 11,3 km/h (2 Bft) 97 %
02.11.2017 10:40 9,2 C 8,9 C 9,2 C 85 % 1015,7 hPa 0,0 l/m 4,8 km/h (1 Bft) SO 135 10 min 0,000 mm 343 W/m 6,8 C 9,2 C 11,3 km/h (2 Bft) 98 %
02.11.2017 10:50 9,5 C 9,1 C 9,5 C 85 % 1015,7 hPa 0,0 l/m 3,2 km/h (1 Bft) SO 135 10 min 0,000 mm 385 W/m 7,1 C 9,5 C 8,0 km/h (2 Bft) 97 %
02.11.2017 11:00 9,8 C 9,4 C 9,8 C 85 % 1015,6 hPa 0,0 l/m 1,6 km/h (1 Bft) SO 135 10 min 0,127 mm 374 W/m 7,4 C 9,8 C 9,7 km/h (2 Bft) 98 %
02.11.2017 11:10 10,7 C 9,8 C 10,7 C 85 % 1015,6 hPa 0,0 l/m 3,2 km/h (1 Bft) S 180 10 min 0,000 mm 441 W/m 8,3 C 10,7 C 9,7 km/h (2 Bft) 98 %
02.11.2017 11:20 11,4 C 10,7 C 11,4 C 84 % 1015,3 hPa 0,0 l/m 4,8 km/h (1 Bft) S 180 10 min 0,000 mm 443 W/m 8,8 C 11,4 C 14,5 km/h (3 Bft) 97 %
02.11.2017 11:30 12,4 C 11,4 C 12,4 C 79 % 1015,3 hPa 0,0 l/m 11,3 km/h (2 Bft) S-SW 202 10 min 0,000 mm 475 W/m 8,9 C 9,6 C 29,0 km/h (5 Bft) 98 %
02.11.2017 11:40 13,2 C 12,4 C 13,2 C 76 % 1015,1 hPa 0,0 l/m 17,7 km/h (3 Bft) SW 225 10 min 0,000 mm 466 W/m 9,1 C 8,1 C 33,8 km/h (5 Bft) 97 %
02.11.2017 11:50 13,1 C 13,1 C 13,3 C 75 % 1014,9 hPa 0,0 l/m 14,5 km/h (3 Bft) SW 225 10 min 0,000 mm 227 W/m 8,8 C 9,1 C 30,6 km/h (5 Bft) 98 %
02.11.2017 12:00 12,7 C 12,7 C 13,1 C 76 % 1014,9 hPa 0,0 l/m 14,5 km/h (3 Bft) SW 225 0 min 0,178 mm 141 W/m 8,6 C 8,6 C 35,4 km/h (5 Bft) 98 %
02.11.2017 12:10 12,5 C 12,5 C 12,7 C 77 % 1014,8 hPa 0,0 l/m 11,3 km/h (2 Bft) W 270 0 min 0,000 mm 130 W/m 8,6 C 9,7 C 32,2 km/h (5 Bft) 97 %
02.11.2017 12:20 12,4 C 12,4 C 12,5 C 78 % 1014,8 hPa 0,0 l/m 6,4 km/h (2 Bft) W 270 0 min 0,000 mm 123 W/m 8,7 C 12,4 C 17,7 km/h (3 Bft) 98 %
02.11.2017 12:30 12,5 C 12,4 C 12,5 C 78 % 1014,7 hPa 0,0 l/m 8,0 km/h (2 Bft) W-SW 247 10 min 0,000 mm 214 W/m 8,8 C 11,5 C 20,9 km/h (4 Bft) 97 %
02.11.2017 12:40 12,7 C 12,5 C 12,7 C 77 % 1014,6 hPa 0,0 l/m 12,9 km/h (3 Bft) W-SW 247 10 min 0,000 mm 269 W/m 8,8 C 9,2 C 35,4 km/h (5 Bft) 98 %
02.11.2017 12:50 12,7 C 12,7 C 12,7 C 76 % 1014,7 hPa 0,0 l/m 17,7 km/h (3 Bft) W 270 10 min 0,000 mm 211 W/m 8,6 C 7,5 C 35,4 km/h (5 Bft) 97 %
02.11.2017 13:00 12,6 C 12,6 C 12,7 C 77 % 1014,7 hPa 0,0 l/m 14,5 km/h (3 Bft) W-SW 247 0 min 0,102 mm 123 W/m 8,7 C 8,5 C 41,8 km/h (6 Bft) 97 %
02.11.2017 13:10 12,4 C 12,4 C 12,6 C 77 % 1014,7 hPa 0,0 l/m 11,3 km/h (2 Bft) W-SW 247 0 min 0,000 mm 116 W/m 8,5 C 9,6 C 33,8 km/h (5 Bft) 98 %
02.11.2017 13:20 12,3 C 12,3 C 12,4 C 78 % 1014,6 hPa 0,0 l/m 8,0 km/h (2 Bft) W-SW 247 0 min 0,000 mm 84 W/m 8,6 C 11,3 C 22,5 km/h (4 Bft) 98 %
02.11.2017 13:30 12,2 C 12,2 C 12,3 C 78 % 1014,5 hPa 0,0 l/m 9,7 km/h (2 Bft) SW 225 10 min 0,000 mm 165 W/m 8,5 C 10,2 C 25,7 km/h (4 Bft) 98 %
02.11.2017 13:40 12,2 C 12,2 C 12,2 C 78 % 1014,4 hPa 0,0 l/m 11,3 km/h (2 Bft) SW 225 10 min 0,000 mm 195 W/m 8,5 C 9,4 C 25,7 km/h (4 Bft) 97 %
02.11.2017 13:50 12,4 C 12,2 C 12,4 C 79 % 1014,3 hPa 0,0 l/m 6,4 km/h (2 Bft) SW 225 10 min 0,000 mm 250 W/m 8,9 C 12,4 C 24,1 km/h (4 Bft) 98 %
02.11.2017 14:00 12,6 C 12,4 C 12,6 C 79 % 1014,4 hPa 0,0 l/m 8,0 km/h (2 Bft) W-SW 247 10 min 0,102 mm 227 W/m 9,1 C 11,6 C 25,7 km/h (4 Bft) 97 %
02.11.2017 14:10 12,6 C 12,6 C 12,6 C 79 % 1014,4 hPa 0,0 l/m 8,0 km/h (2 Bft) SW 225 10 min 0,000 mm 197 W/m 9,1 C 11,6 C 19,3 km/h (3 Bft) 97 %
02.11.2017 14:20 12,4 C 12,4 C 12,6 C 79 % 1014,4 hPa 0,0 l/m 11,3 km/h (2 Bft) W-SW 247 0 min 0,000 mm 141 W/m 8,9 C 9,6 C 30,6 km/h (5 Bft) 98 %
02.11.2017 14:30 12,3 C 12,3 C 12,4 C 80 % 1014,4 hPa 0,0 l/m 8,0 km/h (2 Bft) W-SW 247 0 min 0,000 mm 86 W/m 8,9 C 11,3 C 29,0 km/h (5 Bft) 98 %
02.11.2017 14:40 12,2 C 12,2 C 12,3 C 80 % 1014,3 hPa 0,0 l/m 6,4 km/h (2 Bft) SW 225 0 min 0,000 mm 54 W/m 8,9 C 12,2 C 22,5 km/h (4 Bft) 98 %
02.11.2017 14:50 12,0 C 12,0 C 12,2 C 80 % 1014,4 hPa 0,0 l/m 9,7 km/h (2 Bft) W-SW 247 0 min 0,000 mm 39 W/m 8,7 C 10,0 C 27,4 km/h (4 Bft) 97 %
02.11.2017 15:00 11,8 C 11,8 C 12,0 C 80 % 1014,4 hPa 0,0 l/m 11,3 km/h (2 Bft) W-SW 247 0 min 0,051 mm 56 W/m 8,5 C 8,9 C 29,0 km/h (5 Bft) 98 %
02.11.2017 15:10 11,8 C 11,8 C 11,8 C 81 % 1014,4 hPa 0,0 l/m 6,4 km/h (2 Bft) SW 225 0 min 0,000 mm 47 W/m 8,6 C 11,8 C 25,7 km/h (4 Bft) 98 %
02.11.2017 15:20 11,7 C 11,7 C 11,8 C 81 % 1014,5 hPa 0,0 l/m 6,4 km/h (2 Bft) W 270 0 min 0,000 mm 47 W/m 8,5 C 11,7 C 16,1 km/h (3 Bft) 98 %
02.11.2017 15:30 11,7 C 11,6 C 11,7 C 82 % 1014,5 hPa 0,0 l/m 8,0 km/h (2 Bft) W-SW 247 0 min 0,000 mm 25 W/m 8,7 C 10,6 C 24,1 km/h (4 Bft) 97 %
02.11.2017 15:40 11,6 C 11,6 C 11,6 C 82 % 1014,6 hPa 0,0 l/m 8,0 km/h (2 Bft) W-SW 247 0 min 0,000 mm 30 W/m 8,6 C 10,5 C 22,5 km/h (4 Bft) 96 %
02.11.2017 15:50 11,6 C 11,6 C 11,6 C 82 % 1014,6 hPa 0,0 l/m 6,4 km/h (2 Bft) W-SW 247 0 min 0,000 mm 23 W/m 8,6 C 11,6 C 24,1 km/h (4 Bft) 98 %
02.11.2017 16:00 11,5 C 11,5 C 11,6 C 82 % 1014,6 hPa 0,0 l/m 8,0 km/h (2 Bft) W-SW 247 0 min 0,025 mm 21 W/m 8,5 C 10,4 C 22,5 km/h (4 Bft) 97 %
02.11.2017 16:10 11,4 C 11,4 C 11,5 C 82 % 1014,7 hPa 0,0 l/m 6,4 km/h (2 Bft) W-SW 247 0 min 0,000 mm 18 W/m 8,4 C 11,4 C 17,7 km/h (3 Bft) 98 %
02.11.2017 16:20 11,3 C 11,3 C 11,4 C 83 % 1014,8 hPa 0,0 l/m 8,0 km/h (2 Bft) W-SW 247 0 min 0,000 mm 11 W/m 8,5 C 10,2 C 20,9 km/h (4 Bft) 98 %
02.11.2017 16:30 11,3 C 11,2 C 11,3 C 83 % 1014,8 hPa 0,0 l/m 4,8 km/h (1 Bft) W 270 0 min 0,000 mm 5 W/m 8,5 C 11,3 C 12,9 km/h (3 Bft) 98 %
02.11.2017 16:40 11,2 C 11,2 C 11,3 C 83 % 1014,9 hPa 0,0 l/m 4,8 km/h (1 Bft) W-SW 247 0 min 0,000 mm 0 W/m 8,4 C 11,2 C 17,7 km/h (3 Bft) 98 %
02.11.2017 16:50 11,1 C 11,1 C 11,2 C 84 % 1014,9 hPa 0,0 l/m 3,2 km/h (1 Bft) W 270 0 min 0,000 mm 0 W/m 8,5 C 11,1 C 8,0 km/h (2 Bft) 100 %
02.11.2017 17:00 11,0 C 11,0 C 11,1 C 84 % 1015,0 hPa 0,0 l/m 4,8 km/h (1 Bft) W-SW 247 0 min 0,025 mm 0 W/m 8,4 C 11,0 C 16,1 km/h (3 Bft) 100 %
02.11.2017 17:10 10,9 C 10,9 C 11,0 C 84 % 1015,0 hPa 0,0 l/m 4,8 km/h (1 Bft) W 270 0 min 0,000 mm 0 W/m 8,3 C 10,9 C 14,5 km/h (3 Bft) 100 %
02.11.2017 17:20 10,9 C 10,9 C 10,9 C 84 % 1015,1 hPa 0,0 l/m 4,8 km/h (1 Bft) W 270 0 min 0,000 mm 0 W/m 8,3 C 10,9 C 14,5 km/h (3 Bft) 100 %
02.11.2017 17:30 10,7 C 10,7 C 10,9 C 85 % 1015,1 hPa 0,0 l/m 4,8 km/h (1 Bft) W-SW 247 0 min 0,000 mm 0 W/m 8,3 C 10,7 C 22,5 km/h (4 Bft) 99 %
02.11.2017 17:40 10,6 C 10,6 C 10,8 C 85 % 1015,1 hPa 0,0 l/m 4,8 km/h (1 Bft) W-SW 247 0 min 0,000 mm 0 W/m 8,2 C 10,6 C 17,7 km/h (3 Bft) 100 %
02.11.2017 17:50 10,6 C 10,6 C 10,7 C 86 % 1015,1 hPa 0,0 l/m 4,8 km/h (1 Bft) W-SW 247 0 min 0,000 mm 0 W/m 8,4 C 10,6 C 14,5 km/h (3 Bft) 100 %
02.11.2017 18:00 10,6 C 10,6 C 10,6 C 86 % 1015,2 hPa 0,0 l/m 4,8 km/h (1 Bft) W 270 0 min 0,025 mm 0 W/m 8,4 C 10,6 C 16,1 km/h (3 Bft) 100 %
02.11.2017 18:10 10,6 C 10,6 C 10,6 C 86 % 1015,3 hPa 0,0 l/m 4,8 km/h (1 Bft) W-SW 247 0 min 0,000 mm 0 W/m 8,4 C 10,6 C 17,7 km/h (3 Bft) 100 %
02.11.2017 18:20 10,6 C 10,5 C 10,6 C 86 % 1015,4 hPa 0,0 l/m 4,8 km/h (1 Bft) W-SW 247 0 min 0,000 mm 0 W/m 8,4 C 10,6 C 11,3 km/h (2 Bft) 100 %
02.11.2017 18:30 10,5 C 10,5 C 10,6 C 86 % 1015,4 hPa 0,0 l/m 3,2 km/h (1 Bft) W 270 0 min 0,000 mm 0 W/m 8,3 C 10,5 C 8,0 km/h (2 Bft) 99 %
02.11.2017 18:40 10,4 C 10,4 C 10,5 C 86 % 1015,6 hPa 0,0 l/m 3,2 km/h (1 Bft) W 270 0 min 0,000 mm 0 W/m 8,2 C 10,4 C 8,0 km/h (2 Bft) 99 %
02.11.2017 18:50 10,4 C 10,4 C 10,4 C 87 % 1015,6 hPa 0,0 l/m 4,8 km/h (1 Bft) W 270 0 min 0,000 mm 0 W/m 8,3 C 10,4 C 11,3 km/h (2 Bft) 100 %
02.11.2017 19:00 10,3 C 10,3 C 10,4 C 87 % 1015,7 hPa 0,0 l/m 1,6 km/h (1 Bft) W 270 0 min 0,025 mm 0 W/m 8,2 C 10,3 C 9,7 km/h (2 Bft) 100 %
02.11.2017 19:10 10,2 C 10,2 C 10,3 C 87 % 1015,8 hPa 0,0 l/m 1,6 km/h (1 Bft) W 270 0 min 0,000 mm 0 W/m 8,1 C 10,2 C 11,3 km/h (2 Bft) 100 %
02.11.2017 19:20 10,2 C 10,2 C 10,2 C 87 % 1015,8 hPa 0,0 l/m 1,6 km/h (1 Bft) W 270 0 min 0,000 mm 0 W/m 8,1 C 10,2 C 8,0 km/h (2 Bft) 100 %
02.11.2017 19:40 10,1 C 10,1 C 10,2 C 88 % 1015,8 hPa 0,0 l/m 1,3 km/h (1 Bft) W 262 0 min 0,001 mm 0 W/m 8,2 C 10,1 C 4,8 km/h (1 Bft) 97 %
02.11.2017 19:50 10,1 C 10,1 C 10,1 C 88 % 1015,8 hPa 0,0 l/m 1,3 km/h (1 Bft) W-SW 239 0 min 0,000 mm 0 W/m 8,2 C 10,1 C 8,0 km/h (2 Bft) 98 %
02.11.2017 20:00 10,0 C 10,0 C 10,1 C 88 % 1015,9 hPa 0,0 l/m 3,9 km/h (1 Bft) W 266 0 min 0,000 mm 0 W/m 8,1 C 10,0 C 11,3 km/h (2 Bft) 97 %
02.11.2017 20:10 10,0 C 9,9 C 10,0 C 88 % 1016,1 hPa 0,0 l/m 4,7 km/h (1 Bft) W-SW 248 0 min 0,000 mm 0 W/m 8,1 C 10,0 C 14,5 km/h (3 Bft) 97 %
02.11.2017 20:20 9,9 C 9,9 C 10,0 C 89 % 1016,0 hPa 0,0 l/m 3,4 km/h (1 Bft) W-SW 256 0 min 0,000 mm 0 W/m 8,2 C 9,9 C 9,7 km/h (2 Bft) 97 %
02.11.2017 20:30 9,9 C 9,9 C 9,9 C 89 % 1016,1 hPa 0,0 l/m 3,3 km/h (1 Bft) W 277 0 min 0,000 mm 0 W/m 8,2 C 9,9 C 8,0 km/h (2 Bft) 98 %
02.11.2017 20:40 9,9 C 9,9 C 9,9 C 89 % 1016,3 hPa 0,0 l/m 2,8 km/h (1 Bft) W 265 0 min 0,000 mm 0 W/m 8,2 C 9,9 C 9,7 km/h (2 Bft) 97 %
02.11.2017 20:50 9,9 C 9,9 C 9,9 C 89 % 1016,3 hPa 0,0 l/m 3,2 km/h (1 Bft) W-SW 250 0 min 0,000 mm 0 W/m 8,2 C 9,9 C 14,5 km/h (3 Bft) 97 %
02.11.2017 21:00 9,9 C 9,9 C 9,9 C 89 % 1016,4 hPa 0,0 l/m 4,5 km/h (1 Bft) W-SW 254 0 min 0,000 mm 0 W/m 8,2 C 9,9 C 14,5 km/h (3 Bft) 98 %
02.11.2017 21:10 9,9 C 9,9 C 9,9 C 89 % 1016,5 hPa 0,0 l/m 4,8 km/h (1 Bft) W 270 0 min 0,000 mm 0 W/m 8,2 C 9,9 C 9,7 km/h (2 Bft) 100 %
02.11.2017 21:20 9,9 C 9,9 C 9,9 C 89 % 1016,5 hPa 0,0 l/m 3,2 km/h (1 Bft) W 270 0 min 0,000 mm 0 W/m 8,2 C 9,9 C 11,3 km/h (2 Bft) 100 %
02.11.2017 21:30 9,9 C 9,8 C 9,9 C 89 % 1016,5 hPa 0,0 l/m 1,6 km/h (1 Bft) W-SW 247 0 min 0,000 mm 0 W/m 8,2 C 9,9 C 9,7 km/h (2 Bft) 89 %
02.11.2017 21:40 9,8 C 9,8 C 9,9 C 89 % 1016,5 hPa 0,0 l/m 1,6 km/h (1 Bft) W-SW 247 0 min 0,000 mm 0 W/m 8,1 C 9,8 C 8,0 km/h (2 Bft) 100 %
02.11.2017 21:50 9,8 C 9,8 C 9,8 C 90 % 1016,5 hPa 0,0 l/m 0,0 km/h (0 Bft) W-SW 247 0 min 0,000 mm 0 W/m 8,2 C 9,8 C 6,4 km/h (2 Bft) 99 %
02.11.2017 22:00 9,8 C 9,8 C 9,8 C 90 % 1016,6 hPa 0,0 l/m 0,0 km/h (0 Bft) W-SW 247 0 min 0,000 mm 0 W/m 8,2 C 9,8 C 4,8 km/h (1 Bft) 100 %
02.11.2017 22:10 9,7 C 9,7 C 9,8 C 90 % 1016,6 hPa 0,0 l/m 0,0 km/h (0 Bft) N 0 0 min 0,000 mm 0 W/m 8,1 C 9,7 C 0,0 km/h (0 Bft) 100 %
02.11.2017 22:20 9,7 C 9,7 C 9,7 C 90 % 1016,6 hPa 0,0 l/m 0,0 km/h (0 Bft) W-SW 247 0 min 0,000 mm 0 W/m 8,1 C 9,7 C 6,4 km/h (2 Bft) 100 %
02.11.2017 22:30 9,7 C 9,7 C 9,7 C 90 % 1016,6 hPa 0,0 l/m 0,0 km/h (0 Bft) W-SW 247 0 min 0,000 mm 0 W/m 8,1 C 9,7 C 4,8 km/h (1 Bft) 100 %
02.11.2017 22:40 9,7 C 9,7 C 9,7 C 90 % 1016,6 hPa 0,0 l/m 1,6 km/h (1 Bft) W-SW 247 0 min 0,000 mm 0 W/m 8,1 C 9,7 C 8,0 km/h (2 Bft) 100 %
02.11.2017 22:50 9,7 C 9,6 C 9,7 C 90 % 1016,6 hPa 0,0 l/m 1,6 km/h (1 Bft) W-SW 247 0 min 0,000 mm 0 W/m 8,1 C 9,7 C 6,4 km/h (2 Bft) 100 %
02.11.2017 23:00 9,7 C 9,6 C 9,7 C 90 % 1016,7 hPa 0,0 l/m 1,6 km/h (1 Bft) W-SW 247 0 min 0,000 mm 0 W/m 8,1 C 9,7 C 6,4 km/h (2 Bft) 100 %
02.11.2017 23:10 9,6 C 9,6 C 9,6 C 90 % 1016,8 hPa 0,0 l/m 0,0 km/h (0 Bft) N 0 0 min 0,000 mm 0 W/m 8,0 C 9,6 C 0,0 km/h (0 Bft) 100 %
02.11.2017 23:20 9,6 C 9,6 C 9,6 C 90 % 1016,8 hPa 0,0 l/m 0,0 km/h (0 Bft) N 0 0 min 0,000 mm 0 W/m 8,0 C 9,6 C 0,0 km/h (0 Bft) 100 %
02.11.2017 23:30 9,6 C 9,6 C 9,6 C 90 % 1016,8 hPa 0,0 l/m 0,0 km/h (0 Bft) W-SW 247 0 min 0,000 mm 0 W/m 8,0 C 9,6 C 4,8 km/h (1 Bft) 100 %
02.11.2017 23:40 9,6 C 9,5 C 9,6 C 90 % 1016,8 hPa 0,0 l/m 0,0 km/h (0 Bft) W-SW 247 0 min 0,000 mm 0 W/m 8,0 C 9,6 C 4,8 km/h (1 Bft) 100 %
02.11.2017 23:50 9,5 C 9,5 C 9,6 C 90 % 1016,6 hPa 0,0 l/m 0,0 km/h (0 Bft) W-SW 247 0 min 0,000 mm 0 W/m 7,9 C 9,5 C 4,8 km/h (1 Bft) 99 %
_ Min-Zeit 06:40 06:40 04:00 11:50 13:50 - 00:00 - - - - - 06:40 06:40 00:00 07:20
Minimum _ 3,7 C 3,7 C 3,8 C 75 % 1014,3 hPa - 0,0 km/h (0 Bft) - - - - - 2,2 C 3,7 C 0,0 km/h (0 Bft) 88 %
_ Max-Zeit 11:50 11:50 11:50 06:20 00:00 00:00 11:40 - - 09:40 12:00 11:30 11:40 12:20 13:00 16:50
Maximum _ 13,3 C 13,1 C 13,3 C 91 % 1018,8 hPa 0,0 l/m 17,7 km/h
SW (3 Bft)
- - 10 min 0,178 mm 475 W/m 9,1 C 12,4 C 41,8 km/h
W-SW (6 Bft)
100 %
Durchschnitt _ 8,2 C 8,1 C 8,2 C 87 % 1015,9 hPa #0,0 l/m 3,7 km/h (1 Bft) W-SW - #3:40 h #0,737 mm 160 W/m 6,1 C 7,8 C 10,5 km/h (2 Bft) 98 %
PRIVATE WETTERSTATION BILLIGHEIM-ALLFELD - www.neckar-odenwald-wetter.de - Holger Sonntag